TimePST,TemperatureF,Dew PointF,Humidity,Sea Level PressureIn,VisibilityMPH,Wind Direction,Wind SpeedMPH,Gust SpeedMPH,PrecipitationIn,Events,Conditions,WindDirDegrees,DateUTC
12:53 AM,50.0,44.1,80,30.08,10.0,ENE,3.5,-,N/A,,Clear,70,2013-02-26 08:53:00
1:53 AM,48.9,39.9,71,30.06,10.0,Calm,Calm,-,N/A,,Clear,0,2013-02-26 09:53:00
2:53 AM,48.0,37.0,66,30.04,10.0,Calm,Calm,-,N/A,,Clear,0,2013-02-26 10:53:00
3:53 AM,46.0,37.0,71,30.03,10.0,Calm,Calm,-,N/A,,Clear,0,2013-02-26 11:53:00
4:53 AM,46.0,36.0,68,30.03,10.0,Calm,Calm,-,N/A,,Clear,0,2013-02-26 12:53:00
5:53 AM,46.9,34.0,61,30.03,10.0,Calm,Calm,-,N/A,,Clear,0,2013-02-26 13:53:00
6:53 AM,46.0,34.0,63,30.04,10.0,Calm,Calm,-,N/A,,Clear,0,2013-02-26 14:53:00
7:53 AM,48.9,35.1,59,30.05,10.0,Calm,Calm,-,N/A,,Clear,0,2013-02-26 15:53:00
8:53 AM,54.0,37.0,53,30.06,10.0,East,4.6,-,N/A,,Clear,100,2013-02-26 16:53:00
9:53 AM,57.0,37.9,49,30.07,10.0,Calm,Calm,-,N/A,,Clear,0,2013-02-26 17:53:00
10:53 AM,63.0,28.0,27,30.06,10.0,Calm,Calm,-,N/A,,Clear,0,2013-02-26 18:53:00
11:53 AM,66.9,27.0,22,30.03,10.0,Variable,3.5,-,N/A,,Clear,0,2013-02-26 19:53:00
12:53 PM,70.0,30.0,23,30.00,10.0,Variable,3.5,-,N/A,,Clear,0,2013-02-26 20:53:00
1:53 PM,72.0,39.0,30,29.99,10.0,West,12.7,-,N/A,,Clear,270,2013-02-26 21:53:00
2:53 PM,63.0,46.0,54,30.01,10.0,WSW,12.7,-,N/A,,Clear,250,2013-02-26 22:53:00
2:58 PM,62.6,46.4,55,30.00,1.8,West,12.7,-,N/A,,Haze,260,2013-02-26 22:58:00
3:12 PM,62.6,48.2,59,30.00,10.0,West,11.5,-,N/A,,Clear,270,2013-02-26 23:12:00
3:53 PM,62.1,45.0,53,30.01,10.0,WNW,10.4,-,N/A,,Clear,300,2013-02-26 23:53:00
4:53 PM,62.1,43.0,50,30.01,10.0,WNW,6.9,-,N/A,,Clear,290,2013-02-27 00:53:00
5:53 PM,60.1,43.0,53,30.01,10.0,WNW,5.8,-,N/A,,Clear,290,2013-02-27 01:53:00
6:53 PM,57.9,46.0,65,30.03,10.0,Calm,Calm,-,N/A,,Clear,0,2013-02-27 02:53:00
7:53 PM,57.9,46.0,65,30.05,10.0,Calm,Calm,-,N/A,,Clear,0,2013-02-27 03:53:00
8:53 PM,57.0,46.0,67,30.07,10.0,Calm,Calm,-,N/A,,Clear,0,2013-02-27 04:53:00
9:53 PM,55.9,45.0,67,30.09,10.0,Calm,Calm,-,N/A,,Clear,0,2013-02-27 05:53:00
10:53 PM,55.0,44.1,67,30.11,10.0,Calm,Calm,-,N/A,,Clear,0,2013-02-27 06:53:00
11:53 PM,54.0,42.1,64,30.12,10.0,Calm,Calm,-,N/A,,Clear,0,2013-02-27 07:53:00